Location: Fort Wayne
(41.1310°N, 85.1290°W)
Time: 16:37:20
(UTC-04:00)

Courier 1B Rocket - All Passes

Search period start: 28 June 2016 00:00
Search period end: 08 July 2016 00:00
Orbit: 921 x 1202 km, 28.2° (Epoch: 27 June)

Date Brightness Start Highest point End Pass type
(mag) Time Alt. Az. Time Alt. Az. Time Alt. Az.
28 Jun - 00:20:32 10° SW 00:21:52 10° SSW 00:23:13 10° SSW visible
28 Jun - 17:38:58 10° SSW 17:43:08 18° SSE 17:47:27 10° ESE daylight
28 Jun - 19:30:08 10° SW 19:35:39 27° S 19:41:30 10° ESE daylight
28 Jun - 21:22:51 10° WSW 21:28:24 25° S 21:34:14 10° SE daylight
28 Jun - 23:17:24 10° SW 23:21:04 14° SSW 23:24:49 10° S visible
29 Jun - 16:39:37 10° S 16:42:29 13° SSE 16:45:24 10° SE daylight
29 Jun - 18:29:43 10° SW 18:34:52 25° S 18:40:18 10° ESE daylight
29 Jun - 20:22:00 10° WSW 20:27:33 27° S 20:33:25 10° SE daylight
29 Jun - 22:15:41 10° WSW 22:20:14 18° SSW 22:24:58 10° SSE visible
30 Jun - 17:29:30 10° SSW 17:34:09 21° SSE 17:38:59 10° ESE daylight
30 Jun - 19:21:18 10° SW 19:26:43 27° S 19:32:27 10° SE daylight
30 Jun - 21:14:25 10° WSW 21:19:24 21° SSW 21:24:38 10° SSE daylight
01 Jul - 16:29:34 10° SSW 16:33:29 17° SSE 16:37:29 10° ESE daylight
01 Jul - 18:20:44 10° SW 18:25:57 26° S 18:31:25 10° ESE daylight
01 Jul - 20:13:26 10° WSW 20:18:36 24° S 20:24:03 10° SE daylight
01 Jul - 22:08:08 10° SW 22:11:12 13° SSW 22:14:20 10° S visible
02 Jul - 15:30:12 10° S 15:32:51 13° SSE 15:35:31 10° SE daylight
02 Jul - 17:20:19 10° SW 17:25:13 24° S 17:30:19 10° ESE daylight
02 Jul - 19:12:37 10° WSW 19:17:49 25° S 19:23:17 10° SE daylight
02 Jul - 21:06:21 10° SW 21:10:25 17° SSW 21:14:39 10° SSE daylight
03 Jul - 16:20:04 10° SSW 16:24:32 20° SSE 16:29:06 10° ESE daylight
03 Jul - 18:11:55 10° SW 18:17:03 26° S 18:22:25 10° SE daylight
03 Jul - 20:05:05 10° WSW 20:09:39 20° SSW 20:14:26 10° SSE daylight
04 Jul - 15:20:05 10° SSW 15:23:53 17° SSE 15:27:43 10° SE daylight
04 Jul - 17:11:19 10° SW 17:16:20 25° S 17:21:29 10° ESE daylight
04 Jul - 19:04:05 10° WSW 19:08:54 22° S 19:13:56 10° SE daylight
04 Jul - 20:59:07 10° SW 21:01:25 12° SSW 21:03:45 10° S daylight
05 Jul - 14:20:35 10° S 14:23:15 13° SSE 14:25:55 10° SE daylight
05 Jul - 16:10:51 10° SW 16:15:38 23° S 16:20:30 10° ESE daylight
05 Jul - 18:03:14 10° WSW 18:08:10 24° S 18:13:18 10° SE daylight
05 Jul - 19:57:07 10° SW 20:00:42 15° SSW 20:04:23 10° SSE daylight
06 Jul - 15:10:32 10° SSW 15:14:58 20° SSE 15:19:24 10° ESE daylight
06 Jul - 17:02:30 10° SW 17:07:28 25° S 17:12:33 10° SE daylight
06 Jul - 18:55:46 10° WSW 18:59:59 18° SSW 19:04:20 10° SSE daylight
07 Jul - 14:10:26 10° SSW 14:14:18 17° SSE 14:18:09 10° SE daylight
07 Jul - 16:01:50 10° SW 16:06:45 25° S 16:11:44 10° SE daylight
07 Jul - 17:54:42 10° WSW 17:59:17 21° S 18:03:59 10° SE daylight
07 Jul - 19:50:26 10° SW 19:51:43 11° SSW 19:52:59 10° SSW daylight
